| time (UTC) | temp C | wind direction | speed KPH | gust KPH | rain 1hr cm | rain 24hr cm | rain mn cm | humidity % | barometer mb |
| 20260509043837 | 21 | 62 | 0.0 | 3.2 | 0.00 | 1.57 | 1.57 | 82 | 1010.1 |
| 20260509043333 | 21 | 53 | 3.2 | 3.2 | 0.00 | 1.57 | 1.57 | 82 | 1009.9 |
| 20260509042829 | 21 | 175 | 0.0 | 4.8 | 0.00 | 1.57 | 1.57 | 81 | 1009.8 |
| 20260509042325 | 21 | 255 | 0.0 | 3.2 | 0.00 | 1.57 | 1.57 | 81 | 1009.8 |
| 20260509041822 | 22 | 117 | 0.0 | 3.2 | 0.00 | 1.57 | 1.57 | 80 | 1009.8 |
| 20260509041319 | 22 | 166 | 1.6 | 3.2 | 0.00 | 1.57 | 1.57 | 80 | 1009.9 |
| 20260509040817 | 22 | 243 | 0.0 | 3.2 | 0.00 | 1.57 | 1.57 | 80 | 1010.3 |
| 20260509040314 | 22 | 241 | 1.6 | 4.8 | 0.00 | 1.57 | 1.57 | 80 | 1009.8 |
| 20260509035811 | 22 | 66 | 0.0 | 3.2 | 0.00 | 1.57 | 1.57 | 80 | 1009.8 |
| 20260509035309 | 22 | 199 | 1.6 | 6.4 | 0.00 | 1.57 | 1.57 | 80 | 1010.2 |
| 20260509034805 | 22 | 132 | 3.2 | 6.4 | 0.00 | 1.57 | 1.57 | 80 | 1010.0 |
| 20260509034303 | 22 | 24 | 0.0 | 3.2 | 0.00 | 1.57 | 1.57 | 80 | 1010.2 |
| 20260509033759 | 22 | 15 | 0.0 | 3.2 | 0.00 | 1.57 | 1.57 | 80 | 1011.1 |
| 20260509033257 | 22 | 38 | 0.0 | 4.8 | 0.00 | 1.57 | 1.57 | 80 | 1011.0 |
| 20260509032753 | 22 | 13 | 1.6 | 4.8 | 0.00 | 1.57 | 1.57 | 79 | 1010.9 |
| 20260509032250 | 22 | 40 | 1.6 | 3.2 | 0.00 | 1.57 | 1.57 | 79 | 1010.6 |
| 20260509031748 | 22 | 199 | 0.0 | 1.6 | 0.00 | 1.57 | 1.57 | 79 | 1010.4 |
| 20260509031245 | 22 | 69 | 0.0 | 3.2 | 0.00 | 1.57 | 1.57 | 79 | 1010.3 |
| 20260509030743 | 22 | 108 | 3.2 | 3.2 | 0.00 | 1.57 | 1.57 | 79 | 1010.3 |
| 20260509030240 | 22 | 46 | 3.2 | 4.8 | 0.00 | 1.57 | 1.57 | 78 | 1010.3 |
| 20260509025737 | 22 | 93 | 3.2 | 3.2 | 0.00 | 1.57 | 1.57 | 78 | 1010.5 |
| 20260509025233 | 22 | 218 | 0.0 | 3.2 | 0.00 | 1.57 | 1.57 | 79 | 1010.2 |
| 20260509024728 | 22 | 207 | 3.2 | 3.2 | 0.00 | 1.57 | 1.57 | 79 | 1009.9 |
| 20260509024224 | 22 | 310 | 0.0 | 1.6 | 0.00 | 1.57 | 1.57 | 79 | 1009.9 |
| 20260509023722 | 22 | 347 | 1.6 | 3.2 | 0.00 | 1.57 | 1.57 | 79 | 1009.8 |
| 20260509023219 | 22 | 276 | 3.2 | 4.8 | 0.00 | 1.57 | 1.57 | 78 | 1009.3 |
| 20260509022715 | 22 | 167 | 3.2 | 4.8 | 0.00 | 1.57 | 1.57 | 78 | 1009.1 |
| 20260509022213 | 22 | 197 | 3.2 | 6.4 | 0.00 | 1.57 | 1.57 | 78 | 1009.0 |
| 20260509021709 | 22 | 213 | 1.6 | 6.4 | 0.00 | 1.57 | 1.57 | 78 | 1008.9 |
| 20260509021207 | 22 | 229 | 0.0 | 3.2 | 0.00 | 1.57 | 1.57 | 79 | 1008.9 |
| 20260509020705 | 22 | 212 | 0.0 | 3.2 | 0.00 | 1.57 | 1.57 | 78 | 1009.0 |
| 20260509020201 | 22 | 32 | 0.0 | 3.2 | 0.00 | 1.57 | 1.57 | 78 | 1009.2 |
| 20260509015700 | 22 | 173 | 1.6 | 3.2 | 0.00 | 1.57 | 1.57 | 78 | 1009.1 |
| 20260509015158 | 22 | 245 | 1.6 | 4.8 | 0.00 | 1.57 | 1.57 | 78 | 1009.0 |
| 20260509014654 | 22 | 138 | 3.2 | 6.4 | 0.00 | 1.57 | 1.57 | 77 | 1008.9 |
| 20260509014150 | 22 | 206 | 0.0 | 3.2 | 0.00 | 1.57 | 1.57 | 77 | 1008.9 |
| 20260509013647 | 22 | 148 | 3.2 | 4.8 | 0.00 | 1.57 | 1.57 | 76 | 1008.9 |
| 20260509013143 | 22 | 180 | 0.0 | 3.2 | 0.00 | 1.57 | 1.57 | 76 | 1008.9 |
| 20260509012640 | 22 | 304 | 1.6 | 3.2 | 0.00 | 1.57 | 1.57 | 76 | 1008.8 |
| 20260509012137 | 22 | 222 | 1.6 | 3.2 | 0.00 | 1.57 | 1.57 | 75 | 1008.8 |
| 20260509011635 | 22 | 242 | 0.0 | 3.2 | 0.00 | 1.57 | 1.57 | 75 | 1008.8 |
| 20260509011132 | 22 | 166 | 0.0 | 6.4 | 0.00 | 1.57 | 1.57 | 75 | 1009.0 |
| 20260509010629 | 22 | 237 | 1.6 | 3.2 | 0.00 | 1.57 | 1.57 | 74 | 1008.7 |
| 20260509010126 | 23 | 297 | 0.0 | 3.2 | 0.00 | 1.57 | 1.57 | 74 | 1008.9 |
| 20260509005624 | 23 | 261 | 3.2 | 3.2 | 0.00 | 1.57 | 1.57 | 74 | 1008.7 |
| 20260509005119 | 23 | 28 | 1.6 | 4.8 | 0.00 | 1.57 | 1.57 | 73 | 1008.8 |
| 20260509004615 | 23 | 346 | 0.0 | 3.2 | 0.00 | 1.57 | 1.57 | 73 | 1008.6 |
| 20260509004113 | 23 | 195 | 0.0 | 3.2 | 0.00 | 1.57 | 1.57 | 73 | 1008.4 |
| 20260509003611 | 23 | 105 | 1.6 | 3.2 | 0.00 | 1.57 | 1.57 | 72 | 1008.4 |
| 20260509003108 | 23 | 246 | 4.8 | 8.0 | 0.00 | 1.57 | 1.57 | 72 | 1008.3 |
| 20260509002606 | 23 | 138 | 0.0 | 3.2 | 0.00 | 1.57 | 1.57 | 71 | 1008.3 |
| 20260509002103 | 23 | 284 | 1.6 | 3.2 | 0.00 | 1.57 | 1.57 | 72 | 1008.3 |
| 20260509001600 | 23 | 231 | 1.6 | 6.4 | 0.00 | 1.57 | 1.57 | 72 | 1008.4 |
| 20260509001056 | 23 | 283 | 1.6 | 11.3 | 0.00 | 1.57 | 1.57 | 71 | 1008.2 |
| 20260509000554 | 23 | 192 | 0.0 | 8.0 | 0.00 | 1.57 | 1.57 | 71 | 1008.2 |
| 20260509000050 | 24 | 200 | 1.6 | 8.0 | 0.00 | 1.57 | 1.57 | 71 | 1008.3 |
| 20260508235548 | 24 | 213 | 3.2 | 8.0 | 0.00 | 1.57 | 1.57 | 70 | 1008.4 |
| 20260508235044 | 24 | 70 | 0.0 | 3.2 | 0.00 | 1.57 | 1.57 | 69 | 1008.5 |
| 20260508234542 | 24 | 149 | 3.2 | 4.8 | 0.00 | 1.57 | 1.57 | 68 | 1008.7 |
| 20260508234038 | 25 | 165 | 1.6 | 6.4 | 0.00 | 1.57 | 1.57 | 66 | 1008.6 |
| 20260508233538 | 25 | 216 | 0.0 | 4.8 | 0.00 | 1.57 | 1.57 | 66 | 1008.6 |
| 20260508233035 | 25 | 259 | 3.2 | 6.4 | 0.00 | 1.57 | 1.57 | 67 | 1008.7 |
| 20260508232531 | 25 | 194 | 3.2 | 4.8 | 0.00 | 1.57 | 1.57 | 66 | 1008.7 |
| 20260508232028 | 25 | 111 | 3.2 | 6.4 | 0.00 | 1.57 | 1.57 | 68 | 1008.8 |
| 20260508231526 | 25 | 116 | 0.0 | 9.7 | 0.00 | 1.57 | 1.57 | 68 | 1008.7 |
| 20260508231023 | 25 | 240 | 8.0 | 9.7 | 0.00 | 1.57 | 1.57 | 67 | 1008.9 |
| 20260508230520 | 25 | 146 | 3.2 | 6.4 | 0.00 | 1.57 | 1.57 | 67 | 1008.9 |
| 20260508230017 | 25 | 211 | 6.4 | 8.0 | 0.00 | 1.57 | 1.57 | 67 | 1009.0 |
| 20260508225514 | 25 | 220 | 1.6 | 9.7 | 0.00 | 1.57 | 1.57 | 67 | 1008.8 |
| 20260508225010 | 25 | 247 | 0.0 | 3.2 | 0.00 | 1.57 | 1.57 | 67 | 1008.9 |
| 20260508224508 | 25 | 205 | 4.8 | 6.4 | 0.00 | 1.57 | 1.57 | 67 | 1008.7 |
| 20260508224005 | 25 | 226 | 11.3 | 14.5 | 0.00 | 1.57 | 1.57 | 67 | 1008.8 |
| 20260508223503 | 25 | 173 | 3.2 | 6.4 | 0.00 | 1.57 | 1.57 | 67 | 1008.7 |
| 20260508223000 | 25 | 249 | 3.2 | 6.4 | 0.00 | 1.57 | 1.57 | 66 | 1008.9 |
| 20260508222457 | 25 | 182 | 3.2 | 6.4 | 0.00 | 1.57 | 1.57 | 66 | 1008.9 |
| 20260508221953 | 26 | 10 | 4.8 | 6.4 | 0.00 | 1.57 | 1.57 | 65 | 1008.9 |
| 20260508221450 | 26 | 161 | 4.8 | 8.0 | 0.00 | 1.57 | 1.57 | 63 | 1008.9 |
| 20260508220946 | 26 | 215 | 1.6 | 6.4 | 0.00 | 1.57 | 1.57 | 63 | 1008.8 |
| 20260508220443 | 26 | 337 | 3.2 | 4.8 | 0.00 | 1.57 | 1.57 | 64 | 1008.6 |
| 20260508215939 | 25 | 222 | 3.2 | 19.3 | 0.00 | 1.57 | 1.57 | 65 | 1008.8 |
| 20260508215436 | 25 | 176 | 3.2 | 14.5 | 0.00 | 1.57 | 1.57 | 64 | 1008.8 |
| 20260508214932 | 26 | 191 | 3.2 | 8.0 | 0.00 | 1.57 | 1.57 | 63 | 1008.8 |
| 20260508214431 | 26 | 325 | 3.2 | 6.4 | 0.00 | 1.57 | 1.57 | 62 | 1008.7 |
| 20260508213926 | 26 | 0 | 3.2 | 4.8 | 0.00 | 1.57 | 1.57 | 62 | 1008.8 |
| 20260508213424 | 26 | 87 | 3.2 | 8.0 | 0.00 | 1.57 | 1.57 | 62 | 1008.7 |
| 20260508212919 | 26 | 190 | 6.4 | 8.0 | 0.00 | 1.57 | 1.57 | 62 | 1008.6 |
| 20260508212416 | 26 | 224 | 3.2 | 6.4 | 0.00 | 1.57 | 1.57 | 62 | 1008.9 |
| 20260508211912 | 26 | 111 | 3.2 | 9.7 | 0.00 | 1.57 | 1.57 | 62 | 1008.7 |
| 20260508211408 | 26 | 213 | 1.6 | 11.3 | 0.00 | 1.57 | 1.57 | 62 | 1009.0 |
| 20260508210905 | 26 | 237 | 3.2 | 6.4 | 0.00 | 1.57 | 1.57 | 63 | 1009.3 |
| 20260508210401 | 26 | 241 | 1.6 | 6.4 | 0.00 | 1.57 | 1.57 | 63 | 1009.3 |
| 20260508205858 | 26 | 215 | 0.0 | 6.4 | 0.00 | 1.57 | 1.57 | 64 | 1009.6 |
| 20260508205355 | 25 | 151 | 3.2 | 9.7 | 0.00 | 1.57 | 1.57 | 65 | 1009.8 |
| 20260508204851 | 24 | 144 | 4.8 | 9.7 | 0.00 | 1.57 | 1.57 | 66 | 1010.1 |
| 20260508204348 | 24 | 128 | 1.6 | 6.4 | 0.00 | 1.57 | 1.57 | 66 | 1010.3 |
| 20260508203844 | 24 | 166 | 4.8 | 6.4 | 0.00 | 1.57 | 1.57 | 66 | 1010.7 |
| 20260508203340 | 24 | 181 | 4.8 | 12.9 | 0.00 | 1.57 | 1.57 | 67 | 1010.5 |
| 20260508202836 | 24 | 219 | 3.2 | 11.3 | 0.00 | 1.57 | 1.57 | 66 | 1010.4 |
| 20260508202334 | 24 | 221 | 6.4 | 12.9 | 0.00 | 1.57 | 1.57 | 65 | 1010.6 |
| 20260508201831 | 24 | 232 | 4.8 | 8.0 | 0.00 | 1.57 | 1.57 | 66 | 1010.5 |
| 20260508201328 | 24 | 188 | 3.2 | 12.9 | 0.00 | 1.57 | 1.57 | 65 | 1010.7 |
| 20260508200824 | 25 | 173 | 3.2 | 8.0 | 0.00 | 1.57 | 1.57 | 63 | 1010.6 |
| 20260508200321 | 25 | 231 | 8.0 | 9.7 | 0.00 | 1.57 | 1.57 | 62 | 1010.7 |
| 20260508195811 | 25 | 248 | 3.2 | 12.9 | 0.00 | 1.57 | 1.57 | 63 | 1010.6 |
| 20260508195308 | 25 | 188 | 8.0 | 14.5 | 0.00 | 1.57 | 1.57 | 63 | 1010.7 |
| 20260508194804 | 25 | 219 | 9.7 | 12.9 | 0.00 | 1.57 | 1.57 | 63 | 1010.8 |
| 20260508194301 | 26 | 217 | 9.7 | 11.3 | 0.00 | 1.57 | 1.57 | 61 | 1010.7 |
| 20260508193758 | 26 | 115 | 0.0 | 6.4 | 0.00 | 1.57 | 1.57 | 61 | 1010.7 |
| 20260508193255 | 26 | 246 | 4.8 | 6.4 | 0.00 | 1.57 | 1.57 | 61 | 1010.8 |
| 20260508192751 | 26 | 186 | 1.6 | 9.7 | 0.00 | 1.57 | 1.57 | 60 | 1010.8 |
| 20260508192248 | 26 | 88 | 6.4 | 6.4 | 0.00 | 1.57 | 1.57 | 56 | 1010.8 |
| 20260508191745 | 26 | 91 | 0.0 | 4.8 | 0.00 | 1.57 | 1.57 | 58 | 1010.9 |
| 20260508191242 | 27 | 230 | 4.8 | 4.8 | 0.00 | 1.57 | 1.57 | 56 | 1010.8 |
| 20260508190740 | 27 | 189 | 0.0 | 6.4 | 0.00 | 1.57 | 1.57 | 54 | 1011.0 |
| 20260508190235 | 26 | 254 | 4.8 | 9.7 | 0.00 | 1.57 | 1.57 | 57 | 1011.1 |
| 20260508185732 | 26 | 198 | 0.0 | 6.4 | 0.00 | 1.57 | 1.57 | 56 | 1011.1 |
| 20260508185230 | 26 | 159 | 3.2 | 9.7 | 0.00 | 1.57 | 1.57 | 56 | 1011.0 |
| 20260508184727 | 26 | 206 | 1.6 | 4.8 | 0.00 | 1.57 | 1.57 | 57 | 1010.8 |
| 20260508184224 | 26 | 275 | 3.2 | 6.4 | 0.00 | 1.57 | 1.57 | 58 | 1011.1 |
| 20260508183721 | 25 | 145 | 4.8 | 9.7 | 0.00 | 1.57 | 1.57 | 58 | 1011.1 |
| 20260508183217 | 26 | 209 | 0.0 | 6.4 | 0.00 | 1.57 | 1.57 | 58 | 1011.3 |
| 20260508182713 | 25 | 253 | 0.0 | 6.4 | 0.00 | 1.57 | 1.57 | 60 | 1011.5 |
| 20260508182210 | 25 | 253 | 3.2 | 8.0 | 0.00 | 1.57 | 1.57 | 57 | 1011.6 |
| 20260508181706 | 25 | 160 | 1.6 | 6.4 | 0.00 | 1.57 | 1.57 | 58 | 1011.7 |
| 20260508181204 | 25 | 148 | 8.0 | 11.3 | 0.00 | 1.57 | 1.57 | 60 | 1011.7 |
| 20260508180700 | 25 | 311 | 3.2 | 6.4 | 0.00 | 1.57 | 1.57 | 60 | 1011.8 |
| 20260508180157 | 25 | 56 | 3.2 | 6.4 | 0.00 | 1.57 | 1.57 | 60 | 1011.8 |
| 20260508175653 | 25 | 130 | 0.0 | 4.8 | 0.00 | 1.57 | 1.57 | 60 | 1012.2 |
| 20260508175149 | 25 | 87 | 3.2 | 4.8 | 0.00 | 1.57 | 1.57 | 60 | 1012.0 |
| 20260508174648 | 25 | 106 | 3.2 | 6.4 | 0.00 | 1.57 | 1.57 | 59 | 1012.3 |
| 20260508174144 | 24 | 15 | 1.6 | 9.7 | 0.00 | 1.57 | 1.57 | 61 | 1011.9 |
| 20260508173641 | 24 | 234 | 4.8 | 6.4 | 0.00 | 1.57 | 1.57 | 60 | 1012.0 |
| 20260508173137 | 24 | 140 | 3.2 | 4.8 | 0.00 | 1.57 | 1.57 | 62 | 1012.4 |
| 20260508172634 | 24 | 231 | 3.2 | 4.8 | 0.00 | 1.57 | 1.57 | 61 | 1012.2 |
| 20260508172131 | 23 | 46 | 4.8 | 9.7 | 0.00 | 1.57 | 1.57 | 61 | 1012.7 |
| 20260508171627 | 23 | 280 | 3.2 | 8.0 | 0.00 | 1.57 | 1.57 | 63 | 1012.7 |
| 20260508171124 | 23 | 38 | 3.2 | 8.0 | 0.00 | 1.57 | 1.57 | 62 | 1012.9 |
| 20260508170621 | 23 | 237 | 3.2 | 4.8 | 0.00 | 1.57 | 1.57 | 61 | 1013.1 |
| 20260508170119 | 23 | 318 | 0.0 | 8.0 | 0.00 | 1.57 | 1.57 | 63 | 1013.2 |
| 20260508165615 | 23 | 245 | 3.2 | 16.1 | 0.00 | 1.57 | 1.57 | 63 | 1013.3 |
| 20260508165112 | 22 | 210 | 4.8 | 14.5 | 0.00 | 1.57 | 1.57 | 64 | 1013.5 |
| 20260508164608 | 23 | 74 | 0.0 | 4.8 | 0.00 | 1.57 | 1.57 | 62 | 1013.4 |
| 20260508164105 | 22 | 132 | 3.2 | 11.3 | 0.00 | 1.57 | 1.57 | 63 | 1013.6 |
| 20260508163603 | 22 | 299 | 0.0 | 8.0 | 0.00 | 1.57 | 1.57 | 65 | 1013.7 |
| 20260508163059 | 22 | 198 | 0.0 | 4.8 | 0.00 | 1.57 | 1.57 | 64 | 1013.8 |
| 20260508162556 | 22 | 182 | 3.2 | 6.4 | 0.00 | 1.57 | 1.57 | 65 | 1013.9 |
| 20260508162054 | 22 | 212 | 0.0 | 3.2 | 0.00 | 1.57 | 1.57 | 67 | 1014.1 |
| 20260508161550 | 21 | 160 | 0.0 | 6.4 | 0.00 | 1.57 | 1.57 | 67 | 1014.0 |
| 20260508161048 | 21 | 157 | 0.0 | 4.8 | 0.00 | 1.57 | 1.57 | 68 | 1014.2 |
| 20260508160546 | 21 | 246 | 1.6 | 3.2 | 0.00 | 1.57 | 1.57 | 70 | 1014.1 |
| 20260508160043 | 21 | 312 | 1.6 | 6.4 | 0.00 | 1.57 | 1.57 | 69 | 1014.0 |
| 20260508155540 | 21 | 274 | 3.2 | 6.4 | 0.00 | 1.57 | 1.57 | 70 | 1014.1 |
| 20260508155037 | 21 | 228 | 3.2 | 4.8 | 0.00 | 1.57 | 1.57 | 70 | 1014.0 |
| 20260508154534 | 20 | 181 | 0.0 | 3.2 | 0.00 | 1.57 | 1.57 | 71 | 1014.3 |
| 20260508154031 | 20 | 232 | 9.7 | 9.7 | 0.00 | 1.57 | 1.57 | 69 | 1014.6 |
| 20260508153527 | 20 | 248 | 4.8 | 8.0 | 0.00 | 1.57 | 1.57 | 72 | 1014.4 |
| 20260508153024 | 20 | 216 | 3.2 | 4.8 | 0.00 | 1.57 | 1.57 | 73 | 1014.5 |
| 20260508152521 | 20 | 160 | 3.2 | 4.8 | 0.00 | 1.57 | 1.57 | 72 | 1014.4 |
| 20260508152016 | 20 | 324 | 0.0 | 4.8 | 0.00 | 1.57 | 1.57 | 73 | 1014.4 |
| 20260508151514 | 20 | 224 | 0.0 | 1.6 | 0.00 | 1.57 | 1.57 | 75 | 1014.5 |
| 20260508151010 | 20 | 217 | 0.0 | 3.2 | 0.00 | 1.57 | 1.57 | 74 | 1014.4 |
| 20260508150508 | 20 | 229 | 0.0 | 3.2 | 0.00 | 1.57 | 1.57 | 75 | 1014.6 |
| 20260508150003 | 20 | 99 | 3.2 | 9.7 | 0.00 | 1.57 | 1.57 | 75 | 1014.5 |
| 20260508145500 | 20 | 212 | 0.0 | 3.2 | 0.00 | 1.57 | 1.57 | 76 | 1014.6 |
| 20260508144956 | 19 | 162 | 3.2 | 3.2 | 0.00 | 1.57 | 1.57 | 77 | 1014.6 |
| 20260508144454 | 19 | 239 | 1.6 | 4.8 | 0.00 | 1.57 | 1.57 | 79 | 1014.7 |
| 20260508143951 | 18 | 179 | 0.0 | 3.2 | 0.00 | 1.57 | 1.57 | 81 | 1014.6 |
| 20260508143449 | 18 | 341 | 0.0 | 3.2 | 0.00 | 1.57 | 1.57 | 83 | 1014.5 |
| 20260508142944 | 18 | 111 | 4.8 | 6.4 | 0.00 | 1.57 | 1.57 | 82 | 1014.7 |
| 20260508142442 | 18 | 102 | 3.2 | 6.4 | 0.00 | 1.57 | 1.57 | 83 | 1014.7 |
| 20260508141938 | 18 | 10 | 3.2 | 4.8 | 0.00 | 1.57 | 1.57 | 85 | 1014.7 |
| 20260508141435 | 18 | 110 | 3.2 | 4.8 | 0.00 | 1.57 | 1.57 | 84 | 1014.8 |
| 20260508140933 | 18 | 114 | 3.2 | 3.2 | 0.00 | 1.57 | 1.57 | 85 | 1014.8 |
| 20260508140430 | 17 | 230 | 0.0 | 3.2 | 0.00 | 1.57 | 1.57 | 86 | 1015.0 |
| 20260508135925 | 17 | 216 | 1.6 | 3.2 | 0.00 | 1.57 | 1.57 | 85 | 1015.0 |
| 20260508135422 | 18 | 184 | 0.0 | 4.8 | 0.00 | 1.57 | 1.57 | 85 | 1014.6 |
| 20260508134918 | 17 | 89 | 0.0 | 8.0 | 0.00 | 1.57 | 1.57 | 87 | 1014.7 |
| 20260508134415 | 17 | 199 | 0.0 | 1.6 | 0.00 | 1.57 | 1.57 | 89 | 1014.7 |
| 20260508133912 | 16 | 37 | 0.0 | 6.4 | 0.00 | 1.57 | 1.57 | 92 | 1014.6 |
| 20260508133410 | 16 | 145 | 0.0 | 6.4 | 0.00 | 1.57 | 1.57 | 94 | 1014.6 |
| 20260508132906 | 16 | 124 | 0.0 | 6.4 | 0.00 | 1.57 | 1.57 | 96 | 1014.8 |
| 20260508132404 | 16 | 306 | 0.0 | 1.6 | 0.00 | 1.57 | 1.57 | 96 | 1014.8 |
| 20260508131900 | 16 | 225 | 1.6 | 3.2 | 0.00 | 1.57 | 1.57 | 97 | 1014.9 |
| 20260508131356 | 16 | 244 | 3.2 | 3.2 | 0.00 | 1.57 | 1.57 | 97 | 1014.7 |
| 20260508130853 | 15 | 292 | 0.0 | 3.2 | 0.23 | 1.57 | 1.57 | 97 | 1014.6 |
| 20260508130350 | 16 | 269 | 0.0 | 3.2 | 0.30 | 1.55 | 1.55 | 97 | 1015.0 |
| 20260508125846 | 15 | 53 | 3.2 | 6.4 | 0.18 | 1.52 | 1.52 | 97 | 1014.7 |
| 20260508125342 | 15 | 303 | 3.2 | 3.2 | 0.23 | 1.50 | 1.50 | 97 | 1015.3 |
| 20260508124840 | 15 | 248 | 0.0 | 1.6 | 0.23 | 1.50 | 1.50 | 97 | 1015.1 |
| 20260508124337 | 15 | 60 | 0.0 | 1.6 | 0.05 | 1.47 | 1.47 | 97 | 1014.9 |
| 20260508123835 | 15 | 41 | 3.2 | 3.2 | 0.00 | 1.45 | 1.45 | 97 | 1015.1 |
| 20260508123333 | 15 | 266 | 0.0 | 3.2 | 0.00 | 1.45 | 1.45 | 97 | 1015.2 |
| 20260508122830 | 15 | 322 | 0.0 | 3.2 | 0.00 | 1.45 | 1.45 | 97 | 1015.2 |
| 20260508122326 | 15 | 189 | 0.0 | 3.2 | 0.00 | 1.45 | 1.45 | 97 | 1015.0 |
| 20260508121824 | 15 | 47 | 0.0 | 3.2 | 0.00 | 1.45 | 1.45 | 98 | 1015.2 |
| 20260508121322 | 15 | 353 | 3.2 | 3.2 | 0.00 | 1.45 | 1.45 | 98 | 1015.1 |
| 20260508120819 | 15 | 82 | 0.0 | 3.2 | 0.00 | 1.45 | 1.45 | 98 | 1015.0 |
| 20260508120317 | 15 | 321 | 0.0 | 3.2 | 0.05 | 1.45 | 1.45 | 98 | 1014.9 |
| 20260508115814 | 15 | 358 | 3.2 | 4.8 | 0.00 | 1.45 | 1.45 | 98 | 1014.7 |
| 20260508115312 | 15 | 144 | 0.0 | 3.2 | 0.00 | 1.45 | 1.45 | 98 | 1014.9 |
| 20260508114808 | 16 | 154 | 0.0 | 1.6 | 0.00 | 1.45 | 1.45 | 98 | 1015.1 |
| 20260508114305 | 16 | 212 | 0.0 | 3.2 | 0.00 | 1.45 | 1.45 | 98 | 1014.8 |
| 20260508113801 | 15 | 193 | 1.6 | 4.8 | 0.00 | 1.45 | 1.45 | 98 | 1014.8 |
| 20260508113300 | 15 | 188 | 0.0 | 3.2 | 0.00 | 1.45 | 1.45 | 98 | 1014.7 |
| 20260508112756 | 15 | 180 | 1.6 | 3.2 | 0.00 | 1.45 | 1.45 | 98 | 1014.8 |
| 20260508112253 | 15 | 237 | 0.0 | 3.2 | 1.02 | 1.45 | 1.45 | 97 | 1014.9 |
| 20260508111749 | 15 | 224 | 0.0 | 4.8 | 1.45 | 1.45 | 1.45 | 97 | 1014.8 |
| 20260508111247 | 15 | 13 | 3.2 | 3.2 | 0.71 | 1.27 | 1.27 | 97 | 1014.6 |
| 20260508110744 | 15 | 269 | 0.0 | 0.0 | 0.61 | 1.19 | 1.19 | 97 | 1014.6 |
| 20260508110242 | 15 | 7 | 3.2 | 3.2 | 0.43 | 1.14 | 1.14 | 97 | 1014.9 |
| 20260508105741 | 15 | 146 | 0.0 | 3.2 | 0.13 | 1.07 | 1.07 | 97 | 1015.3 |
| 20260508105238 | 15 | 338 | 0.0 | 3.2 | 0.00 | 1.07 | 1.07 | 97 | 1015.4 |
| 20260508104735 | 15 | 347 | 3.2 | 3.2 | 0.00 | 1.07 | 1.07 | 97 | 1015.4 |
| 20260508104232 | 15 | 42 | 3.2 | 3.2 | 0.00 | 1.07 | 1.07 | 97 | 1014.7 |
| 20260508103730 | 15 | 89 | 0.0 | 3.2 | 0.00 | 1.07 | 1.07 | 97 | 1015.2 |
| 20260508103226 | 15 | 324 | 1.6 | 8.0 | 0.13 | 1.07 | 1.07 | 97 | 1015.3 |
| 20260508102724 | 15 | 330 | 3.2 | 6.4 | 0.97 | 1.07 | 1.07 | 97 | 1014.5 |
| 20260508102222 | 15 | 29 | 3.2 | 4.8 | 1.32 | 1.04 | 1.04 | 97 | 1014.1 |
| 20260508101719 | 15 | 298 | 0.0 | 4.8 | 0.61 | 0.89 | 0.89 | 97 | 1014.8 |
| 20260508101216 | 16 | 255 | 3.2 | 3.2 | 0.13 | 0.81 | 0.81 | 97 | 1014.3 |
| 20260508100714 | 15 | 269 | 0.0 | 3.2 | 0.00 | 0.79 | 0.79 | 97 | 1013.8 |
| 20260508100212 | 15 | 349 | 0.0 | 1.6 | 0.00 | 0.79 | 0.79 | 97 | 1013.7 |
| 20260508095707 | 15 | 139 | 0.0 | 0.0 | 0.00 | 0.79 | 0.79 | 97 | 1014.0 |
| 20260508095205 | 15 | 315 | 0.0 | 0.0 | 0.00 | 0.79 | 0.79 | 97 | 1013.8 |
| 20260508094701 | 16 | 147 | 0.0 | 0.0 | 0.00 | 0.79 | 0.79 | 97 | 1013.9 |
| 20260508094159 | 16 | 218 | 0.0 | 0.0 | 0.00 | 0.79 | 0.79 | 96 | 1013.9 |
| 20260508093656 | 15 | 50 | 0.0 | 1.6 | 0.00 | 0.79 | 0.79 | 96 | 1014.2 |
| 20260508093154 | 15 | 293 | 0.0 | 0.0 | 0.00 | 0.79 | 0.79 | 96 | 1014.1 |
| 20260508092650 | 15 | 217 | 0.0 | 0.0 | 0.00 | 0.79 | 0.79 | 96 | 1014.2 |
| 20260508092149 | 15 | 304 | 0.0 | 1.6 | 0.00 | 0.79 | 0.79 | 96 | 1014.3 |
| 20260508091646 | 15 | 330 | 0.0 | 3.2 | 0.00 | 0.79 | 0.79 | 96 | 1014.0 |
| 20260508091143 | 15 | 225 | 0.0 | 0.0 | 0.00 | 0.79 | 0.79 | 96 | 1014.1 |
| 20260508090641 | 15 | 217 | 0.0 | 1.6 | 0.05 | 0.79 | 0.79 | 95 | 1014.5 |
| 20260508090138 | 15 | 315 | 1.6 | 1.6 | 0.05 | 0.79 | 0.79 | 95 | 1014.3 |
| 20260508085634 | 15 | 315 | 0.0 | 0.0 | 0.00 | 0.76 | 0.76 | 95 | 1014.3 |
| 20260508085131 | 15 | 235 | 0.0 | 1.6 | 0.00 | 0.76 | 0.76 | 94 | 1014.8 |
| 20260508084627 | 15 | 162 | 1.6 | 3.2 | 0.00 | 0.76 | 0.76 | 94 | 1014.8 |
| 20260508084125 | 15 | 291 | 0.0 | 3.2 | 0.00 | 0.76 | 0.76 | 94 | 1015.1 |
| 20260508083622 | 15 | 278 | 1.6 | 3.2 | 0.05 | 0.76 | 0.76 | 93 | 1014.7 |
| 20260508083119 | 15 | 127 | 6.4 | 6.4 | 0.18 | 0.76 | 0.76 | 93 | 1013.9 |
| 20260508082615 | 15 | 71 | 3.2 | 8.0 | 0.13 | 0.76 | 0.76 | 94 | 1014.2 |
| 20260508082112 | 15 | 95 | 1.6 | 4.8 | 0.00 | 0.74 | 0.74 | 93 | 1014.5 |
| 20260508081609 | 15 | 225 | 4.8 | 6.4 | 0.13 | 0.74 | 0.74 | 92 | 1015.3 |
| 20260508081106 | 15 | 224 | 0.0 | 1.6 | 0.71 | 0.74 | 0.74 | 90 | 1015.0 |
| 20260508080603 | 15 | 50 | 0.0 | 3.2 | 3.53 | 0.71 | 0.71 | 88 | 1014.9 |
| 20260508080101 | 15 | 283 | 0.0 | 3.2 | 3.43 | 0.56 | 0.56 | 87 | 1015.5 |
| 20260508075557 | 16 | 228 | 0.0 | 3.2 | 0.13 | 0.03 | 0.03 | 82 | 1016.2 |
| 20260508075054 | 16 | 149 | 0.0 | 4.8 | 0.00 | 0.00 | 0.00 | 81 | 1016.4 |
| 20260508074552 | 16 | 249 | 0.0 | 3.2 | 0.00 | 0.00 | 0.00 | 80 | 1015.8 |
| 20260508074049 | 16 | 235 | 4.8 | 4.8 | 0.00 | 0.00 | 0.00 | 79 | 1015.8 |
| 20260508073546 | 16 | 298 | 0.0 | 0.0 | 0.00 | 0.00 | 0.00 | 79 | 1015.5 |
| 20260508073044 | 16 | 210 | 0.0 | 0.0 | 0.00 | 0.00 | 0.00 | 79 | 1015.4 |
| 20260508072539 | 16 | 180 | 0.0 | 3.2 | 0.00 | 0.00 | 0.00 | 79 | 1015.4 |
| 20260508072037 | 16 | 135 | 0.0 | 1.6 | 0.00 | 0.00 | 0.00 | 80 | 1015.3 |
| 20260508071534 | 16 | 112 | 3.2 | 3.2 | 0.00 | 0.00 | 0.00 | 81 | 1015.3 |
| 20260508071032 | 16 | 358 | 1.6 | 1.6 | 0.00 | 0.00 | 0.00 | 81 | 1015.5 |
| 20260508070530 | 16 | 65 | 1.6 | 1.6 | 0.00 | 0.00 | 0.00 | 81 | 1015.5 |
| 20260508070028 | 16 | 66 | 0.0 | 3.2 | 0.00 | 0.00 | 0.00 | 81 | 1015.4 |
| 20260508065525 | 16 | 39 | 0.0 | 3.2 | 0.00 | 0.00 | 0.00 | 81 | 1015.4 |
| 20260508065023 | 16 | 69 | 1.6 | 3.2 | 0.00 | 0.00 | 0.00 | 80 | 1015.6 |
| 20260508064520 | 16 | 35 | 1.6 | 3.2 | 0.00 | 0.00 | 0.00 | 79 | 1015.7 |
| 20260508064018 | 16 | 48 | 1.6 | 1.6 | 0.00 | 0.00 | 0.00 | 79 | 1015.9 |
| 20260508063515 | 16 | 346 | 0.0 | 1.6 | 0.00 | 0.00 | 0.00 | 79 | 1016.0 |
| 20260508063013 | 16 | 328 | 0.0 | 1.6 | 0.00 | 0.00 | 0.00 | 79 | 1016.1 |
| 20260508062510 | 16 | 37 | 0.0 | 1.6 | 0.00 | 0.00 | 0.00 | 79 | 1016.0 |
| 20260508062007 | 16 | 73 | 0.0 | 0.0 | 0.00 | 0.00 | 0.00 | 79 | 1016.0 |
| 20260508061505 | 16 | 130 | 0.0 | 0.0 | 0.00 | 0.00 | 0.00 | 78 | 1016.0 |
| 20260508061001 | 16 | 50 | 0.0 | 0.0 | 0.00 | 0.00 | 0.00 | 79 | 1015.9 |
| 20260508060458 | 16 | 102 | 0.0 | 1.6 | 0.00 | 0.00 | 0.00 | 78 | 1015.8 |
| 20260508055954 | 16 | 101 | 3.2 | 3.2 | 0.00 | 0.00 | 0.00 | 78 | 1015.8 |
| 20260508055451 | 16 | 44 | 0.0 | 1.6 | 0.00 | 0.00 | 0.00 | 78 | 1015.9 |
| 20260508054948 | 16 | 66 | 0.0 | 0.0 | 0.00 | 0.00 | 0.00 | 78 | 1015.9 |
| 20260508054445 | 16 | 230 | 0.0 | 1.6 | 0.00 | 0.00 | 0.00 | 79 | 1015.8 |
| 20260508053941 | 16 | 40 | 0.0 | 1.6 | 0.00 | 0.00 | 0.00 | 79 | 1015.8 |
| 20260508053438 | 16 | 89 | 0.0 | 1.6 | 0.00 | 0.00 | 0.00 | 78 | 1015.9 |
| 20260508052937 | 16 | 66 | 0.0 | 1.6 | 0.00 | 0.00 | 0.00 | 78 | 1016.0 |
| 20260508052434 | 16 | 55 | 0.0 | 0.0 | 0.00 | 0.00 | 0.00 | 77 | 1016.1 |
| 20260508051930 | 16 | 326 | 0.0 | 0.0 | 0.00 | 0.00 | 0.00 | 77 | 1016.2 |
| 20260508051426 | 16 | 50 | 0.0 | 0.0 | 0.00 | 0.00 | 0.00 | 77 | 1016.0 |
| 20260508050922 | 17 | 217 | 0.0 | 0.0 | 0.00 | 0.00 | 0.00 | 76 | 1016.1 |
| 20260508050419 | 16 | 50 | 0.0 | 0.0 | 0.00 | 0.00 | 0.00 | 77 | 1016.0 |
| 20260508045915 | 17 | 37 | 0.0 | 0.0 | 0.00 | 0.00 | 0.00 | 76 | 1016.0 |
| 20260508045407 | 17 | 37 | 0.0 | 0.0 | 0.00 | 0.00 | 0.00 | 76 | 1015.8 |
| 20260508044904 | 17 | 37 | 0.0 | 0.0 | 0.00 | 0.00 | 0.00 | 76 | 1016.0 |
| 20260508044401 | 17 | 304 | 0.0 | 0.0 | 0.00 | 0.00 | 0.00 | 76 | 1016.1 |